Location: Appleton
(44.2618°N, 88.4157°W)
Time: 10:58:58
(UTC+00:00)

Courier 1B Rocket - All Passes

Search period start: 01 March 2021 00:00
Search period end: 11 March 2021 00:00
Orbit: 920 x 1202 km, 28.3° (Epoch: 28 February)

Date Brightness Start Highest point End Pass type
(mag) Time Alt. Az. Time Alt. Az. Time Alt. Az.
01 Mar - 00:46:45 10° SW 00:52:29 23° S 00:58:14 10° SE visible
01 Mar - 02:41:19 10° SW 02:44:59 14° SSW 02:48:38 10° S visible
01 Mar - 21:53:51 10° SSW 21:58:57 20° SSE 22:04:10 10° SE daylight
01 Mar - 23:45:43 10° SW 23:51:33 24° S 23:57:27 10° SE daylight
02 Mar - 01:39:21 10° SW 01:44:09 17° SSW 01:48:55 10° SSE visible
02 Mar - 20:53:51 10° SSW 20:58:07 16° SSE 21:02:29 10° SE daylight
02 Mar - 22:44:55 10° SW 22:50:37 23° S 22:56:27 10° SE daylight
03 Mar - 00:37:53 10° SW 00:43:14 20° SSW 00:48:38 10° SSE visible
03 Mar - 02:34:46 10° SSW 02:35:40 10° SSW 02:36:33 10° SSW visible
03 Mar - 19:54:35 10° S 19:57:21 12° SSE 20:00:10 10° SE daylight
03 Mar - 21:44:21 10° SW 21:49:43 22° S 21:55:15 10° SE daylight
03 Mar - 23:36:44 10° SW 23:42:20 22° S 23:48:02 10° SE daylight
04 Mar - 01:31:12 10° SW 01:34:51 14° SSW 01:38:30 10° S visible
04 Mar - 20:44:04 10° SSW 20:48:52 19° SSE 20:53:50 10° SE daylight
04 Mar - 22:35:48 10° SW 22:41:25 23° S 22:47:11 10° SE daylight
05 Mar - 00:29:20 10° SW 00:33:59 17° SSW 00:38:42 10° SSE visible
05 Mar - 19:44:10 10° SSW 19:48:04 15° SSE 19:52:06 10° SE daylight
05 Mar - 21:35:06 10° SW 21:40:31 22° S 21:46:08 10° SE daylight
05 Mar - 23:27:57 10° SW 23:33:06 20° SSW 23:38:22 10° SSE daylight
06 Mar - 18:45:09 10° S 18:47:22 12° SSE 18:49:36 10° SE daylight
06 Mar - 20:34:38 10° SW 20:39:39 21° S 20:44:54 10° SE daylight
06 Mar - 22:26:54 10° SW 22:32:13 21° S 22:37:42 10° SE daylight
07 Mar - 00:21:19 10° SW 00:24:43 13° SSW 00:28:09 10° S visible
07 Mar - 19:34:26 10° SSW 19:38:51 18° SSE 19:43:28 10° SE daylight
07 Mar - 21:26:04 10° SW 21:31:20 22° S 21:36:50 10° SE daylight
07 Mar - 23:19:31 10° SW 23:23:52 16° SSW 23:28:20 10° SSE daylight
08 Mar - 18:34:39 10° SSW 18:38:07 15° SSE 18:41:43 10° SE daylight
08 Mar - 20:25:26 10° SW 20:30:29 21° S 20:35:47 10° SE daylight
08 Mar - 22:18:14 10° SW 22:23:01 19° SSW 22:27:59 10° SSE daylight
09 Mar - 17:35:57 10° S 17:37:28 11° SSE 17:39:00 10° SE daylight
09 Mar - 19:25:02 10° SW 19:29:41 20° S 19:34:34 10° SE daylight
09 Mar - 21:17:14 10° SW 21:22:10 20° S 21:27:19 10° SE daylight
09 Mar - 23:11:43 10° SW 23:14:38 13° SSW 23:17:35 10° S daylight
10 Mar - 18:24:54 10° SSW 18:28:57 17° SSE 18:33:09 10° SE daylight
10 Mar - 20:16:28 10° SW 20:21:21 21° S 20:26:28 10° SE daylight
10 Mar - 22:09:55 10° SW 22:13:49 15° SSW 22:17:51 10° SSE daylight
